Altoona, PA

4:41 AM EDT on October 14, 2019 (GMT -0400)
Altoona-Blair County

Weather History for KAOO - August, 2019

Change the Weather History Date:

Thursday, August 15, 2019

  Actual Average Record
Temperature  
Mean Temperature 71 °F 70 °F  
Max Temperature 82 °F 80 °F 93 °F (1988)
Min Temperature 60 °F 59 °F 46 °F (2013)
Degree Days  
Heating Degree Days 0 1  
Month to date heating degree days 0 7  
Since 1 June heating degree days 38 75  
Since 1 July heating degree days 0 17  
Cooling Degree Days 6 5  
Month to date cooling degree days 91 86  
Year to date cooling degree days 553 413  
Since 1 June cooling degree days 484 380  
Growing Degree Days 22 (Base 50)    
Moisture  
Dew Point 63 °F    
Average Humidity 80    
Maximum Humidity 97    
Minimum Humidity 62    
Precipitation  
Precipitation 0.57 in 0.10 in 0.57 in (2019)
Month to date precipitation 2.04 1.42  
Year to date precipitation 28.94 22.34  
Sea Level Pressure  
Sea Level Pressure 29.99 in    
Wind  
Wind Speed 4 mph (SE)    
Max Wind Speed 18 mph    
Max Gust Speed 27 mph    
Visibility 5 miles    
Events Fog , Rain , Thunderstorm    
T = Trace of Precipitation, MM = Missing Value Source: NWS Daily Summary

Daily Weather History Graph

Daily Weather History Graph

Search for Another Location

Airport or City:

Astronomy

Aug. 15, 2019 Rise Set
Actual Time 6:24 AM EDT 8:10 PM EDT
Civil Twilight 5:54 AM EDT 8:39 PM EDT
Nautical Twilight 5:19 AM EDT 9:15 PM EDT
Astronomical Twilight 4:41 AM EDT 9:52 PM EDT
Moon 8:38 PM EDT (8/15) 6:16 AM EDT (8/15)
Length of Visible Light 14h 44m
Length of Day
13h 46m
Full, 100% of the Moon is Illuminated
Aug 15
Full
Aug 23
Last Quarter
Aug 30
New
Sep 5
First Quarter
Sep 14
Full

Hourly Weather History & Observations

Time (EDT) Temp. Heat Index Dew Point Humidity Pressure Visibility Wind Dir Wind Speed Gust Speed Precip Events Conditions
12:53 AM 64.9 °F - 63.0 °F 93% 29.98 in 4.0 mi East 3.5 mph - N/A   Clear
1:53 AM 64.0 °F - 61.0 °F 90% 29.98 in 6.0 mi Calm Calm - N/A   Clear
2:45 AM 63.0 °F - 61.0 °F 93% 29.99 in 1.8 mi Calm Calm - N/A   Clear
2:53 AM 63.0 °F - 61.0 °F 93% 29.97 in 0.8 mi Calm Calm - N/A   Clear
3:05 AM 63.0 °F - 61.0 °F 93% 29.99 in 2.0 mi Calm Calm - N/A   Clear
3:12 AM 63.0 °F - 62.1 °F 97% 29.99 in 4.0 mi SSE 3.5 mph - N/A   Clear
3:35 AM 63.0 °F - 61.0 °F 93% 29.99 in 2.0 mi Calm Calm - N/A   Clear
3:45 AM 63.0 °F - 61.0 °F 93% 29.99 in 0.8 mi Calm Calm - N/A   Clear
3:51 AM 62.6 °F - 60.8 °F 94% 29.99 in 0.5 mi Calm Calm - N/A Fog Fog
3:53 AM 62.1 °F - 60.1 °F 93% 29.96 in 0.5 mi Calm Calm - N/A Fog Fog
4:15 AM 62.1 °F - 60.1 °F 93% 29.98 in 1.0 mi Calm Calm - N/A   Mist
4:23 AM 62.1 °F - 60.1 °F 93% 29.99 in 1.8 mi Calm Calm - N/A   Partly Cloudy
4:31 AM 62.1 °F - 60.1 °F 93% 29.99 in 3.0 mi Calm Calm - N/A   Partly Cloudy
4:53 AM 62.1 °F - 60.1 °F 93% 29.96 in 1.2 mi Calm Calm - N/A   Partly Cloudy
5:03 AM 62.1 °F - 60.1 °F 93% 29.99 in 1.0 mi Calm Calm - N/A   Mist
5:11 AM 61.0 °F - 60.1 °F 97% 29.99 in 0.5 mi Calm Calm - N/A Fog Fog
5:53 AM 61.0 °F - 59.0 °F 93% 29.96 in 0.2 mi Calm Calm - N/A Fog Fog
6:53 AM 63.0 °F - 61.0 °F 93% 29.98 in 0.2 mi Calm Calm - N/A Fog Fog
7:27 AM 64.0 °F - 62.1 °F 93% 30.01 in 1.0 mi Calm Calm - N/A   Overcast
7:41 AM 64.9 °F - 63.0 °F 93% 30.02 in 2.5 mi Calm Calm - N/A   Overcast
7:49 AM 64.4 °F - 62.6 °F 94% 30.02 in 4.0 mi Calm Calm - N/A   Overcast
7:53 AM 64.9 °F - 63.0 °F 93% 30.00 in 5.0 mi Calm Calm - N/A   Overcast
8:43 AM 66.9 °F - 64.0 °F 90% 30.03 in 6.0 mi Calm Calm - N/A   Scattered Clouds
8:53 AM 68.0 °F - 64.0 °F 87% 30.01 in 8.0 mi Calm Calm - N/A   Scattered Clouds
9:53 AM 73.0 °F - 64.9 °F 76% 30.01 in 10.0 mi Variable 3.5 mph - N/A   Partly Cloudy
10:37 AM 73.9 °F - 66.0 °F 76% 30.04 in 10.0 mi East 5.8 mph - N/A   Mostly Cloudy
10:53 AM 73.9 °F - 66.0 °F 76% 30.02 in 10.0 mi ESE 5.8 mph - N/A   Overcast
11:53 AM 75.9 °F - 66.9 °F 74% 30.01 in 10.0 mi Variable 5.8 mph - N/A   Mostly Cloudy
12:53 PM 78.1 °F - 68.0 °F 71% 29.99 in 10.0 mi SE 8.1 mph - N/A   Mostly Cloudy
1:53 PM 79.0 °F - 68.0 °F 69% 29.96 in 10.0 mi East 6.9 mph - N/A   Mostly Cloudy
2:12 PM 81.0 °F 84.1 °F 69.1 °F 67% 29.99 in 10.0 mi ESE 9.2 mph - N/A   Overcast
2:53 PM 80.1 °F 82.7 °F 68.0 °F 67% 29.94 in 10.0 mi SSE 10.4 mph - N/A   Partly Cloudy
3:53 PM 82.0 °F 84.9 °F 68.0 °F 62% 29.92 in 10.0 mi SSE 9.2 mph - N/A   Partly Cloudy
4:53 PM 80.1 °F 82.3 °F 66.9 °F 64% 29.92 in 10.0 mi South 9.2 mph - N/A   Clear
5:07 PM 80.1 °F 82.3 °F 66.9 °F 64% 29.95 in 10.0 mi South 10.4 mph - N/A Thunderstorm Scattered Clouds
5:53 PM 78.1 °F - 66.0 °F 66% 29.94 in 10.0 mi Variable 4.6 mph - N/A Thunderstorm Scattered Clouds
6:41 PM 70.0 °F - 61.0 °F 73% 29.99 in 10.0 mi North 15.0 mph 25.3 mph N/A   Overcast
6:49 PM 69.8 °F - 62.6 °F 78% 29.98 in 10.0 mi North 11.5 mph - N/A Thunderstorm Overcast
6:53 PM 69.1 °F - 62.1 °F 78% 29.97 in 8.0 mi North 12.7 mph - 0.03 in Rain , Thunderstorm Light Rain
6:58 PM 66.9 °F - 63.0 °F 87% 29.98 in 2.5 mi North 11.5 mph - 0.07 in Rain , Thunderstorm Heavy Thunderstorms and Rain
7:07 PM 66.0 °F - 63.0 °F 90% 29.99 in 1.8 mi North 9.2 mph - 0.16 in Rain , Thunderstorm Heavy Thunderstorms and Rain
7:14 PM 66.0 °F - 63.0 °F 90% 30.00 in 0.5 mi Calm Calm - 0.32 in Fog , Rain , Thunderstorm Heavy Thunderstorms and Rain
7:25 PM 66.0 °F - 64.0 °F 93% 30.00 in 0.5 mi SE 9.2 mph - 0.52 in Fog , Rain , Thunderstorm Light Thunderstorms and Rain
7:27 PM 66.0 °F - 64.0 °F 93% 30.00 in 1.0 mi SE 8.1 mph - 0.52 in Rain , Thunderstorm Thunderstorms and Rain
7:31 PM 66.0 °F - 64.0 °F 93% 30.01 in 3.0 mi SE 5.8 mph - 0.52 in Rain , Thunderstorm Light Thunderstorms and Rain
7:49 PM 66.2 °F - 62.6 °F 88% 29.98 in 10.0 mi ESE 8.1 mph - 0.52 in Thunderstorm Scattered Clouds
7:53 PM 66.0 °F - 63.0 °F 90% 29.97 in 10.0 mi ESE 5.8 mph - 0.52 in Thunderstorm Scattered Clouds
8:02 PM 66.0 °F - 63.0 °F 90% 29.98 in 10.0 mi SSE 8.1 mph - N/A   Partly Cloudy
8:53 PM 66.0 °F - 64.0 °F 93% 29.98 in 8.0 mi SSE 3.5 mph - N/A   Clear
9:43 PM 66.9 °F - 64.0 °F 90% 30.02 in 9.0 mi Calm Calm - 0.02 in Rain , Thunderstorm Light Rain
9:51 PM 66.2 °F - 64.4 °F 94% 30.03 in 8.0 mi South 4.6 mph - 0.02 in Rain , Thunderstorm Light Thunderstorms and Rain
9:53 PM 66.0 °F - 64.0 °F 93% 30.00 in 8.0 mi South 5.8 mph - 0.02 in Rain , Thunderstorm Light Thunderstorms and Rain
10:06 PM 66.0 °F - 64.0 °F 93% 30.01 in 10.0 mi SE 3.5 mph - 0.00 in   Scattered Clouds
10:53 PM 66.0 °F - 64.0 °F 93% 30.01 in 5.0 mi Calm Calm - 0.00 in   Mostly Cloudy
11:11 PM 66.0 °F - 64.0 °F 93% 30.02 in 3.0 mi Calm Calm - N/A   Mostly Cloudy
11:23 PM 64.9 °F - 63.0 °F 93% 30.03 in 2.5 mi Calm Calm - N/A   Mostly Cloudy
11:33 PM 64.9 °F - 63.0 °F 93% 30.02 in 4.0 mi Calm Calm - N/A   Mostly Cloudy
11:53 PM 64.9 °F - 63.0 °F 93% 30.00 in 4.0 mi SE 3.5 mph - N/A   Mostly Cloudy